Showing default

HULIANWANG DIGUI-43, 65046

Orbit data source: Space-Track

HULIANWANG DIGUI-43, 65046 is a payload satellite owned by Zhongguo Xingwang (CN) in LEO that was launched on Wed, 30 Jul 2025 UTC via a CHANG ZHENG 8A launch vehicle from the Wenchang Satellite Launch Center (WSC). Payload-class satellites include a variety of spacecraft equipped with specific instruments for various scientific and technological missions. These include communications satellites like Starlink; space stations such as the ISS; scientific satellites like the Hubble; Earth observation satellites from companies like Planet Labs, Umbra, and HawkEye 360; GPS; miniature CubeSats for education and research; and military/defense satellites.

Loading next visibility...
Identifier
65046, 2025-162D
Orbit
LEO
Country
Flag of CNCN / PRC
Related business
Manufacturer
SECM
Mission
Operational Civil Communications
Bus & Motor
GUOWANG S, Unknown motor
Mass
~800 kg wet, ~800 kg dry
Launch date (UTC)
2025-07-30 (4 months ago)
Launch vehicle
CHANG ZHENG 8A
Launch site
Wenchang Satellite Launch Center (WSC)
Object type
Payload
Rocket body
Debris
Shape & HBR
Box + 2 Pan, 14.5 m
Radar Cross Section
5.935 m², Large (>1 m²)

Expand to show TLE details & history
Last TLE update: 14 hours ago

TLE from 14 hours ago
0 HULIANWANG DIGUI-43
1 65046U 25162D   25342.41120833 -.00000042  00000-0  17571-3 0  9996
2 65046  49.9979 230.0045 0000494  79.6688 280.4239 13.29331093 17982
Epoch: 2025-12-08T09:52Z
TLE epoch observation values (Epoch: 2025-12-08T09:52:08.399Z)
Latitude
-0.00008°
Longitude
4.55881°
Altitude
1,149.726 km
Speed
7.279 km/s
True Right ascension
15h 20m 01s
True Declination
0° 00' 00"
Sunlit
Object was in daylight at epoch
Visualization orbit readout
Latitude
Unknown
Longitude
Unknown
Altitude
Unknown
Speed
Unknown
Apparent Right ascension
Unknown
Apparent Declination
Unknown
Sunlit
N/A
Visualization observer readout
Local Sidereal Time
21:51:13
Azimuth
Unknown
Elevation
Unknown
Doppler factor
Unknown
Orbital elements
Apogee altitude
1,150.365 km
Perigee altitude
1,149.621 km
Semi-major axis
7,528.13 km
Eccentricity
0.00005
Inclination
49.9979°
RAAN
230.0045°
Arg. of periapsis
79.6688°
True anomaly
280.41833°
Mean anomaly
280.4239°
Eccentric anomaly
280.42112°
Mean motion
3.32286 °/min
Orbital period
108.34 mins
BSTAR
0.00017571
Loading maneuver chart data...
Computing Atmospheric mass density...
Loading historical data...
Loading historical data...
Loading historical data...
Loading historical data...
Loading historical data...
Loading historical data...
Loading historical data...

Documentation

Showing up to 5 results
|